Weather History for Taunton, MA

Change the Weather History Date:

Saturday, February 16, 2013

  Actual Average Record
Temperature  
Mean Temperature 34 °F -  
Max Temperature 37 °F 39 °F 63 °F (1954)
Min Temperature 32 °F 19 °F -3 °F (1979)
Degree Days  
Heating Degree Days 30    
Moisture  
Dew Point 30 °F    
Average Humidity 83    
Maximum Humidity 92    
Minimum Humidity 66    
Precipitation  
Precipitation 0.07 in - - ()
Sea Level Pressure  
Sea Level Pressure 29.84 in    
Wind  
Wind Speed 4 mph (NNW)    
Max Wind Speed 10 mph    
Max Gust Speed -    
Visibility 4 miles    
Events Fog , Snow    
Averages and records for this station are not official NWS values.
T = Trace of Precipitation, MM = Missing Value Source: NWS Daily Summary

Daily Weather History Graph

Daily Weather History Graph

Search for Another Location

Airport:

Trip Planner

Search our weather history database for the weather conditions in past years. The results will help you decide how hot, cold, wet, or windy it might be!

Date:

Astronomy

Feb. 16, 2013 Rise Set
Actual Time 6:38 AM EST 5:18 PM EST
Civil Twilight 6:09 AM EST 5:47 PM EST
Nautical Twilight 5:37 AM EST 6:19 PM EST
Astronomical Twilight 5:04 AM EST 6:52 PM EST
Moon 9:42 AM EST (2/16) No Moon Set
Length of Visible Light 11h 37m
Length of Day
10h 40m
Waxing Crescent, 39% of the Moon is Illuminated
Feb 16
Waxing Crescent
Feb 17
First Quarter
Feb 25
Full
Mar 4
Last Quarter
Mar 11
New

Hourly Weather History & Observations

Time (EST) Temp. Windchill Dew Point Humidity Pressure Visibility Wind Dir Wind Speed Gust Speed Precip Events Conditions
12:52 AM 33.1 °F - 30.9 °F 92% 29.95 in 0.2 mi Calm Calm - N/A Fog Fog
1:52 AM 33.1 °F - 30.0 °F 89% 29.93 in 0.2 mi Calm Calm - N/A Fog Fog
2:52 AM 32.0 °F - 30.0 °F 92% 29.91 in 0.2 mi Calm Calm - N/A Fog Fog
3:52 AM 34.0 °F - 32.0 °F 92% 29.90 in 0.2 mi Calm Calm - N/A Fog Fog
4:52 AM 34.0 °F - 32.0 °F 92% 29.91 in 1.5 mi Calm Calm - N/A   Overcast
5:10 AM 34.0 °F - 32.0 °F 92% 29.89 in 1.2 mi Calm Calm - N/A   Overcast
5:20 AM 34.0 °F 29.8 °F 30.9 °F 89% 29.90 in 2.0 mi NW 4.6 mph - N/A   Overcast
5:30 AM 34.0 °F 29.8 °F 30.9 °F 89% 29.90 in 4.0 mi NNW 4.6 mph - N/A   Overcast
5:52 AM 34.0 °F 28.8 °F 30.0 °F 85% 29.91 in 10.0 mi NNW 5.8 mph - N/A   Overcast
6:52 AM 35.1 °F 29.3 °F 28.0 °F 76% 29.92 in 10.0 mi NNW 6.9 mph - N/A   Overcast
7:14 AM 35.1 °F 31.0 °F 28.0 °F 76% 29.91 in 10.0 mi North 4.6 mph - N/A   Overcast
7:52 AM 36.0 °F 28.5 °F 28.0 °F 73% 29.93 in 10.0 mi North 10.4 mph - N/A   Overcast
8:45 AM 36.0 °F 29.6 °F 28.0 °F 73% 29.93 in 10.0 mi North 8.1 mph - N/A   Overcast
8:52 AM 37.0 °F 32.4 °F 28.0 °F 70% 29.93 in 10.0 mi North 5.8 mph - N/A   Overcast
8:59 AM 37.0 °F 33.3 °F 28.0 °F 70% 29.92 in 10.0 mi North 4.6 mph - N/A   Overcast
9:28 AM 37.0 °F 31.6 °F 28.0 °F 70% 29.92 in 10.0 mi North 6.9 mph - N/A   Overcast
9:52 AM 37.0 °F 31.0 °F 28.0 °F 70% 29.91 in 10.0 mi North 8.1 mph - N/A   Overcast
10:52 AM 36.0 °F 28.5 °F 28.0 °F 73% 29.91 in 10.0 mi NNW 10.4 mph - N/A   Overcast
11:43 AM 36.0 °F 31.1 °F 28.9 °F 76% 29.90 in 4.0 mi NNW 5.8 mph - 0.00 in Snow Light Snow
11:52 AM 36.0 °F 31.1 °F 30.0 °F 79% 29.89 in 5.0 mi North 5.8 mph - 0.00 in Snow Light Snow
12:52 PM 35.1 °F 32.2 °F 30.0 °F 82% 29.87 in 4.0 mi North 3.5 mph - 0.00 in Snow Light Snow
1:45 PM 35.1 °F 32.2 °F 30.0 °F 82% 29.85 in 2.5 mi North 3.5 mph - 0.00 in Snow Light Snow
1:52 PM 35.1 °F 31.0 °F 30.0 °F 82% 29.85 in 2.5 mi North 4.6 mph - 0.00 in Snow Light Snow
2:15 PM 35.1 °F 29.3 °F 30.0 °F 82% 29.84 in 2.5 mi North 6.9 mph - 0.01 in Snow Light Snow
2:37 PM 35.1 °F 30.1 °F 30.0 °F 82% 29.84 in 1.8 mi NNW 5.8 mph - 0.01 in Snow Light Snow
2:41 PM 35.1 °F 30.1 °F 30.0 °F 82% 29.84 in 2.0 mi North 5.8 mph - 0.01 in Snow Light Snow
2:52 PM 35.1 °F 31.0 °F 30.0 °F 82% 29.84 in 2.5 mi North 4.6 mph - 0.01 in Snow Light Snow
3:02 PM 35.1 °F 32.2 °F 30.0 °F 82% 29.83 in 2.0 mi NNW 3.5 mph - 0.00 in Snow Light Snow
3:15 PM 35.1 °F 30.1 °F 30.0 °F 82% 29.83 in 1.5 mi NNW 5.8 mph - 0.01 in Snow Light Snow
3:22 PM 34.0 °F 29.8 °F 30.0 °F 85% 29.83 in 1.2 mi NNW 4.6 mph - 0.01 in Snow Light Snow
3:27 PM 34.0 °F 29.8 °F 30.0 °F 85% 29.83 in 1.2 mi NNW 4.6 mph - 0.01 in Snow Light Snow
3:52 PM 34.0 °F 29.8 °F 30.0 °F 85% 29.83 in 1.2 mi NNW 4.6 mph - 0.02 in Snow Light Snow
4:08 PM 34.0 °F 31.0 °F 30.0 °F 85% 29.83 in 1.5 mi NNW 3.5 mph - 0.00 in Snow Light Snow
4:22 PM 34.0 °F 28.0 °F 30.0 °F 85% 29.82 in 1.2 mi NNW 6.9 mph - 0.01 in Snow Light Snow
4:47 PM 33.8 °F 29.6 °F 30.2 °F 87% 29.81 in 1.8 mi North 4.6 mph - 0.01 in Snow Light Snow
4:52 PM 34.0 °F 29.8 °F 30.9 °F 89% 29.81 in 2.0 mi North 4.6 mph - 0.01 in Snow Light Snow
5:00 PM 34.0 °F 29.8 °F 30.9 °F 89% 29.81 in 2.0 mi North 4.6 mph - 0.00 in Snow Light Snow
5:23 PM 34.0 °F 31.0 °F 30.9 °F 89% 29.80 in 4.0 mi North 3.5 mph - 0.00 in Snow Light Snow
5:52 PM 34.0 °F - 30.9 °F 89% 29.81 in 4.0 mi Calm Calm - 0.00 in Snow Light Snow
6:29 PM 34.0 °F 31.0 °F 30.9 °F 89% 29.82 in 2.5 mi NNW 3.5 mph - 0.00 in Snow Light Snow
6:39 PM 34.0 °F 31.0 °F 30.9 °F 89% 29.81 in 1.5 mi NNW 3.5 mph - 0.01 in Snow Light Snow
6:47 PM 33.8 °F 30.8 °F 30.2 °F 87% 29.81 in 1.2 mi NNW 3.5 mph - 0.01 in Snow Light Snow
6:52 PM 34.0 °F - 30.9 °F 89% 29.81 in 1.2 mi Calm Calm - 0.01 in Snow Light Snow
7:14 PM 34.0 °F 31.0 °F 30.9 °F 89% 29.80 in 1.0 mi NNW 3.5 mph - 0.01 in Snow Light Snow
7:31 PM 34.0 °F 31.0 °F 30.0 °F 85% 29.79 in 1.8 mi North 3.5 mph - 0.02 in Snow Light Snow
7:40 PM 34.0 °F 31.0 °F 30.0 °F 85% 29.79 in 1.5 mi North 3.5 mph - 0.02 in Snow Light Snow
7:52 PM 34.0 °F 29.8 °F 30.0 °F 85% 29.79 in 2.0 mi North 4.6 mph - 0.02 in Snow Light Snow
8:04 PM 34.0 °F 28.8 °F 30.0 °F 85% 29.78 in 3.0 mi North 5.8 mph - 0.00 in Snow Light Snow
8:35 PM 34.0 °F 28.8 °F 30.0 °F 85% 29.77 in 4.0 mi NNW 5.8 mph - 0.00 in Snow Light Snow
8:52 PM 34.0 °F 28.0 °F 30.0 °F 85% 29.76 in 5.0 mi North 6.9 mph - 0.00 in Snow Light Snow
9:28 PM 34.0 °F 28.8 °F 28.9 °F 82% 29.75 in 10.0 mi NNW 5.8 mph - 0.00 in   Overcast
9:52 PM 34.0 °F 28.0 °F 28.9 °F 82% 29.73 in 10.0 mi North 6.9 mph - 0.00 in   Overcast
10:52 PM 33.1 °F 26.1 °F 26.1 °F 75% 29.70 in 10.0 mi North 8.1 mph - N/A   Overcast
11:04 PM 33.1 °F 26.9 °F 25.0 °F 72% 29.68 in 10.0 mi North 6.9 mph - N/A   Overcast
11:52 PM 32.0 °F 24.8 °F 21.9 °F 66% 29.66 in 10.0 mi North 8.1 mph - N/A   Overcast